Regional Weather Roundup
Issued by NWS Kansas City/Pleasant Hill, MO

Home | Current Version | Previous Version | Text Only | Print | Product List | Glossary On
Versions: 1 2 3 4 5 6 7 8 9 10 11 12 13 14 15 16 17 18 19 20 21 22 23 24 25 26 27 28 29 30 31 32 33 34 35 36 37 38 39 40 41 42 43 44 45 46 47 48 49 50
354
ASUS43 KEAX 220910
RWREAX

WEATHER ROUNDUP FOR EASTERN KANSAS AND NORTHWEST MISSOURI
NATIONAL WEATHER SERVICE KANSAS CITY/PLEASANT HILL MO
400 AM CDT SUN OCT 22 2017

KSZ040-057-103>105-MOZ028-029-037-043-221000-
...KANSAS CITY METROPOLITAN AREA...

CITY           SKY/WX    TMP DP  RH WIND       PRES   REMARKS
K.C. INTL      LGT RAIN  50  46  86 NE12      29.98S
K.C. DOWNTOWN  LGT RAIN  52  50  93 N6        29.99S
LEES SUMMIT    LGT RAIN  50  49  96 N13       29.99F
OLATHE - IXD   CLOUDY    50  48  93 NE15G22   29.96F
OLATHE - OJC   TSTM      48  47  96 NE14      29.96F
LAWRENCE       MOCLDY    51  49  92 CALM      29.99F

$$

MOZ001>008-011>017-020>025-030>033-038>040-044>046-053-054-221000-
...NORTHERN AND CENTRAL MISSOURI...

CITY           SKY/WX    TMP DP  RH WIND       PRES   REMARKS
ST. JOSEPH     CLOUDY    51  51 100 CALM      30.01R
MOSBY          CLOUDY    50  48  93 N6        30.01R
WARRENSBURG    RAIN      50  48  93 N7G17     29.99S
WHITEMAN AFB   RAIN      52  50  93 N14       29.94R
CLINTON        RAIN      54  52  94 N9        29.98S
SEDALIA        LGT RAIN  54  54 100 NW12      29.98R
WARSAW         NOT AVBL
CHILLICOTHE      N/A     51  49  92 N6        30.00R
KIRKSVILLE     LGT RAIN  51  51 100 N12G22    29.96R

$$

MOZ041-047>049-056>058-063>065-088>090-097-221000-
...EASTERN AND SOUTHERN MISSOURI...

CITY           SKY/WX    TMP DP  RH WIND       PRES   REMARKS
ST. LOUIS INTL CLOUDY    70  63  78 S16G25    29.89S
SPIRIT OF STL  LGT RAIN  71  64  78 SE9       29.86F
COLUMBIA       LGT RAIN  61  60  97 NW13      29.91R
JEFFERSON CITY RAIN      61  58  90 NW13      29.91R
ROLLA          TSTM      58  57  97 NW24      29.89R FOG
OSAGE BEACH    RAIN      59  59 100 VRB5      29.95R
SPRINGFIELD    RAIN      59  59 100 W3        29.96F FOG
BRANSON        HVY RAIN  59  59 100 NW6       29.99F
JOPLIN         HVY RAIN  54  54 100 MISG      29.93F FOG
WEST PLAINS    HVY RAIN  58  55  90 W12G20    29.94R FOG

$$

IAZ060-094-KSZ022-034>040-054-083-096-NEZ052-066-093-221000-
...KANSAS...SOUTHEAST NEBRASKA AND IOWA...

CITY           SKY/WX    TMP DP  RH WIND       PRES   REMARKS
TOPEKA         MOCLDY    51  51 100 CALM      30.01F
MANHATTAN      CLOUDY    49  42  77 CALM      30.05R
EMPORIA        CLOUDY    49  46  90 W6        30.04R
CHANUTE        CLOUDY    52  50  93 NW8       30.02R
WICHITA        CLEAR     49  43  80 NW3       30.08R
OMAHA          MOCLDY    48  40  73 NW5       30.01S
LINCOLN        CLOUDY    47  40  76 W3        30.04R
FALLS CITY     CLOUDY    50  43  77 NW9       30.00S
LAMONI         LGT RAIN  49  47  93 NE7       29.97R
DES MOINES     CLOUDY    51  46  83 NW7       29.96S

$$





USA.gov is the U.S. government's official web portal to all federal, state and local government web resources and services.